Time,TemperatureF,DewpointF,PressureIn,WindDirection,WindDirectionDegrees,WindSpeedMPH,WindSpeedGustMPH,Humidity,HourlyPrecipIn,Conditions,Clouds,dailyrainin,SoftwareType,DateUTC
2013-04-17 00:09:00,59.4,57.0,30.11,ENE,63,2.0,3.0,90,0.00,,,0.00,weatherlink.com 1.10,2013-04-17 04:09:00,
2013-04-17 00:24:00,59.6,57.0,30.11,ENE,63,1.0,3.0,91,0.00,,,0.00,weatherlink.com 1.10,2013-04-17 04:24:00,
2013-04-17 00:39:00,59.2,56.0,30.10,ENE,63,1.0,3.0,90,0.00,,,0.00,weatherlink.com 1.10,2013-04-17 04:39:00,
2013-04-17 00:54:00,59.2,57.0,30.10,ENE,63,1.0,2.0,91,0.00,,,0.00,weatherlink.com 1.10,2013-04-17 04:54:00,
2013-04-17 01:09:00,59.3,56.0,30.10,ENE,63,0.0,2.0,90,0.00,,,0.00,weatherlink.com 1.10,2013-04-17 05:09:00,
2013-04-17 01:24:00,58.9,56.0,30.11,ENE,63,0.0,2.0,91,0.00,,,0.00,weatherlink.com 1.10,2013-04-17 05:24:00,
2013-04-17 01:39:00,58.6,56.0,30.11,ENE,63,0.0,2.0,91,0.00,,,0.00,weatherlink.com 1.10,2013-04-17 05:39:00,
2013-04-17 01:54:00,58.3,56.0,30.11,ENE,63,1.0,3.0,92,0.00,,,0.00,weatherlink.com 1.10,2013-04-17 05:54:00,
2013-04-17 02:09:00,58.2,56.0,30.10,ENE,63,2.0,3.0,93,0.00,,,0.00,weatherlink.com 1.10,2013-04-17 06:09:00,
2013-04-17 02:24:00,58.9,57.0,30.09,ENE,63,0.0,3.0,92,0.00,,,0.00,weatherlink.com 1.10,2013-04-17 06:24:00,
2013-04-17 02:39:00,58.4,56.0,30.09,ENE,62,1.0,3.0,92,0.00,,,0.00,weatherlink.com 1.10,2013-04-17 06:39:00,
2013-04-17 02:54:00,58.1,56.0,30.10,ENE,62,0.0,2.0,92,0.00,,,0.00,weatherlink.com 1.10,2013-04-17 06:54:00,
2013-04-17 03:09:00,57.9,56.0,30.10,ENE,62,2.0,3.0,92,0.00,,,0.00,weatherlink.com 1.10,2013-04-17 07:09:00,
2013-04-17 03:24:00,58.4,56.0,30.11,ENE,62,0.0,3.0,93,0.00,,,0.00,weatherlink.com 1.10,2013-04-17 07:24:00,
2013-04-17 03:39:00,58.5,57.0,30.11,ENE,62,0.0,2.0,93,0.00,,,0.00,weatherlink.com 1.10,2013-04-17 07:39:00,
2013-04-17 03:54:00,59.1,57.0,30.11,ENE,62,3.0,3.0,93,0.00,,,0.00,weatherlink.com 1.10,2013-04-17 07:54:00,
2013-04-17 04:10:00,59.5,57.0,30.11,ENE,62,0.0,2.0,92,0.00,,,0.00,weatherlink.com 1.10,2013-04-17 08:10:00,
2013-04-17 04:24:00,59.3,57.0,30.11,NE,38,1.0,4.0,92,0.00,,,0.00,weatherlink.com 1.10,2013-04-17 08:24:00,
2013-04-17 04:39:00,59.4,57.0,30.11,NE,38,0.0,1.0,92,0.00,,,0.00,weatherlink.com 1.10,2013-04-17 08:39:00,
2013-04-17 04:54:00,59.5,57.0,30.09,East,87,2.0,3.0,92,0.00,,,0.00,weatherlink.com 1.10,2013-04-17 08:54:00,
2013-04-17 05:09:00,58.9,57.0,30.09,East,87,1.0,2.0,92,0.00,,,0.00,weatherlink.com 1.10,2013-04-17 09:09:00,
2013-04-17 05:24:00,58.9,57.0,30.10,NE,53,1.0,4.0,93,0.00,,,0.00,weatherlink.com 1.10,2013-04-17 09:24:00,
2013-04-17 05:39:00,58.5,56.0,30.10,NE,53,0.0,0.0,92,0.00,,,0.00,weatherlink.com 1.10,2013-04-17 09:39:00,
2013-04-17 05:54:00,58.5,56.0,30.11,NE,53,0.0,3.0,92,0.00,,,0.00,weatherlink.com 1.10,2013-04-17 09:54:00,
2013-04-17 06:09:00,58.2,56.0,30.11,NE,53,0.0,0.0,93,0.00,,,0.00,weatherlink.com 1.10,2013-04-17 10:09:00,
2013-04-17 06:25:00,59.5,58.0,30.13,NNE,28,1.0,5.0,94,0.00,,,0.00,weatherlink.com 1.10,2013-04-17 10:25:00,
2013-04-17 06:55:00,60.6,58.0,30.12,ENE,66,2.0,5.0,90,0.00,,,0.00,weatherlink.com 1.10,2013-04-17 10:55:00,
2013-04-17 07:10:00,60.2,58.0,30.13,NE,36,1.0,5.0,91,0.00,,,0.00,weatherlink.com 1.10,2013-04-17 11:10:00,
2013-04-17 07:25:00,60.4,58.0,30.13,NE,34,1.0,2.0,90,0.00,,,0.00,weatherlink.com 1.10,2013-04-17 11:25:00,
2013-04-17 07:40:00,60.8,58.0,30.12,ENE,65,0.0,2.0,91,0.00,,,0.00,weatherlink.com 1.10,2013-04-17 11:40:00,
2013-04-17 07:55:00,60.1,58.0,30.14,North,355,1.0,4.0,92,0.00,,,0.00,weatherlink.com 1.10,2013-04-17 11:55:00,
2013-04-17 08:10:00,60.7,59.0,30.13,NE,49,1.0,2.0,93,0.00,,,0.00,weatherlink.com 1.10,2013-04-17 12:10:00,
2013-04-17 08:25:00,62.8,60.0,30.12,SSW,200,2.0,4.0,90,0.00,,,0.00,weatherlink.com 1.10,2013-04-17 12:25:00,
2013-04-17 08:40:00,63.6,59.0,30.11,South,181,3.0,6.0,86,0.00,,,0.00,weatherlink.com 1.10,2013-04-17 12:40:00,
2013-04-17 08:55:00,63.5,60.0,30.12,SW,231,3.0,6.0,88,0.00,,,0.00,weatherlink.com 1.10,2013-04-17 12:55:00,
2013-04-17 09:10:00,63.4,60.0,30.11,SW,216,0.0,3.0,89,0.00,,,0.00,weatherlink.com 1.10,2013-04-17 13:10:00,
2013-04-17 09:25:00,64.3,61.0,30.11,SW,236,0.0,4.0,88,0.00,,,0.00,weatherlink.com 1.10,2013-04-17 13:25:00,
2013-04-17 09:40:00,64.6,61.0,30.11,WSW,242,3.0,3.0,87,0.00,,,0.00,weatherlink.com 1.10,2013-04-17 13:40:00,
2013-04-17 09:55:00,65.4,62.0,30.11,West,259,4.0,4.0,87,0.00,,,0.00,weatherlink.com 1.10,2013-04-17 13:55:00,
2013-04-17 10:10:00,66.5,62.0,30.11,WSW,238,1.0,4.0,86,0.00,,,0.00,weatherlink.com 1.10,2013-04-17 14:10:00,
2013-04-17 10:25:00,68.4,62.0,30.11,WSW,244,2.0,5.0,81,0.00,,,0.00,weatherlink.com 1.10,2013-04-17 14:25:00,
2013-04-17 10:40:00,69.0,62.0,30.11,SSW,208,3.0,5.0,77,0.00,,,0.00,weatherlink.com 1.10,2013-04-17 14:40:00,
2013-04-17 10:55:00,70.6,63.0,30.10,WNW,295,2.0,4.0,76,0.00,,,0.00,weatherlink.com 1.10,2013-04-17 14:55:00,
2013-04-17 11:10:00,72.1,63.0,30.10,WSW,250,0.0,3.0,73,0.00,,,0.00,weatherlink.com 1.10,2013-04-17 15:10:00,
2013-04-17 11:25:00,72.9,63.0,30.11,South,187,1.0,3.0,71,0.00,,,0.00,weatherlink.com 1.10,2013-04-17 15:25:00,
2013-04-17 11:40:00,73.7,63.0,30.11,West,277,1.0,4.0,70,0.00,,,0.00,weatherlink.com 1.10,2013-04-17 15:40:00,
2013-04-17 11:55:00,74.6,61.0,30.11,NE,34,2.0,10.0,63,0.00,,,0.00,weatherlink.com 1.10,2013-04-17 15:55:00,
2013-04-17 12:10:00,74.3,60.0,30.11,NNE,28,5.0,12.0,62,0.00,,,0.00,weatherlink.com 1.10,2013-04-17 16:10:00,
2013-04-17 12:25:00,74.0,60.0,30.10,North,355,5.0,9.0,62,0.00,,,0.00,weatherlink.com 1.10,2013-04-17 16:25:00,
2013-04-17 12:40:00,73.0,61.0,30.10,NW,323,8.0,11.0,66,0.00,,,0.00,weatherlink.com 1.10,2013-04-17 16:40:00,
2013-04-17 12:55:00,71.9,63.0,30.10,NW,321,5.0,7.0,74,0.00,,,0.00,weatherlink.com 1.10,2013-04-17 16:55:00,
2013-04-17 13:10:00,70.1,64.0,30.10,NE,44,1.0,3.0,80,0.00,,,0.00,weatherlink.com 1.10,2013-04-17 17:10:00,
2013-04-17 13:25:00,70.6,64.0,30.09,East,90,1.0,3.0,79,0.00,,,0.00,weatherlink.com 1.10,2013-04-17 17:25:00,
2013-04-17 13:40:00,71.8,64.0,30.08,NE,53,0.0,4.0,77,0.00,,,0.00,weatherlink.com 1.10,2013-04-17 17:40:00,
2013-04-17 13:56:00,73.2,62.0,30.08,NNW,338,6.0,7.0,69,0.00,,,0.00,weatherlink.com 1.10,2013-04-17 17:56:00,
2013-04-17 14:11:00,74.4,63.0,30.07,NNE,30,3.0,6.0,67,0.00,,,0.00,weatherlink.com 1.10,2013-04-17 18:11:00,
2013-04-17 14:26:00,75.0,61.0,30.07,NE,36,7.0,12.0,62,0.00,,,0.00,weatherlink.com 1.10,2013-04-17 18:26:00,
2013-04-17 14:41:00,73.6,61.0,30.07,NNE,15,5.0,11.0,64,0.00,,,0.00,weatherlink.com 1.10,2013-04-17 18:41:00,
2013-04-17 14:56:00,72.9,61.0,30.08,NE,42,5.0,10.0,66,0.00,,,0.00,weatherlink.com 1.10,2013-04-17 18:56:00,
2013-04-17 15:11:00,71.8,60.0,30.08,NNE,17,7.0,10.0,67,0.00,,,0.00,weatherlink.com 1.10,2013-04-17 19:11:00,
2013-04-17 15:26:00,71.1,60.0,30.08,NW,310,5.0,8.0,69,0.00,,,0.00,weatherlink.com 1.10,2013-04-17 19:26:00,
2013-04-17 15:41:00,69.9,61.0,30.08,NW,308,4.0,7.0,74,0.00,,,0.00,weatherlink.com 1.10,2013-04-17 19:41:00,
2013-04-17 15:56:00,68.6,62.0,30.07,ENE,69,2.0,3.0,79,0.00,,,0.00,weatherlink.com 1.10,2013-04-17 19:56:00,
2013-04-17 16:11:00,67.9,62.0,30.05,ENE,59,1.0,4.0,81,0.00,,,0.00,weatherlink.com 1.10,2013-04-17 20:11:00,
2013-04-17 16:26:00,68.2,63.0,30.04,SE,146,1.0,3.0,84,0.00,,,0.00,weatherlink.com 1.10,2013-04-17 20:26:00,
2013-04-17 16:41:00,69.3,64.0,30.04,WNW,283,2.0,5.0,83,0.00,,,0.00,weatherlink.com 1.10,2013-04-17 20:41:00,
2013-04-17 16:56:00,68.8,62.0,30.03,SW,216,1.0,3.0,80,0.00,,,0.00,weatherlink.com 1.10,2013-04-17 20:56:00,
2013-04-17 17:26:00,69.1,64.0,30.02,SSW,200,3.0,5.0,84,0.00,,,0.00,weatherlink.com 1.10,2013-04-17 21:26:00,
2013-04-17 17:41:00,69.1,65.0,30.02,SW,219,3.0,4.0,85,0.00,,,0.00,weatherlink.com 1.10,2013-04-17 21:41:00,
2013-04-17 17:56:00,69.0,64.0,30.02,SSW,209,2.0,5.0,85,0.00,,,0.00,weatherlink.com 1.10,2013-04-17 21:56:00,
2013-04-17 18:11:00,68.7,65.0,30.02,SW,218,1.0,4.0,87,0.00,,,0.00,weatherlink.com 1.10,2013-04-17 22:11:00,
2013-04-17 18:26:00,68.6,64.0,30.02,SW,223,2.0,3.0,86,0.00,,,0.00,weatherlink.com 1.10,2013-04-17 22:26:00,
2013-04-17 18:42:00,68.3,64.0,30.02,SSW,202,1.0,4.0,85,0.00,,,0.00,weatherlink.com 1.10,2013-04-17 22:42:00,
2013-04-17 18:56:00,68.0,63.0,30.02,South,190,1.0,4.0,85,0.00,,,0.00,weatherlink.com 1.10,2013-04-17 22:56:00,
2013-04-17 19:41:00,66.8,63.0,30.03,SSE,160,0.0,1.0,88,0.00,,,0.00,weatherlink.com 1.10,2013-04-17 23:41:00,
2013-04-17 19:56:00,66.3,63.0,30.03,SSE,160,0.0,0.0,88,0.00,,,0.00,weatherlink.com 1.10,2013-04-17 23:56:00,
2013-04-17 20:11:00,66.0,63.0,30.03,SSE,160,1.0,1.0,89,0.00,,,0.00,weatherlink.com 1.10,2013-04-18 00:11:00,
2013-04-17 20:26:00,65.4,62.0,30.04,SSE,160,0.0,2.0,89,0.00,,,0.00,weatherlink.com 1.10,2013-04-18 00:26:00,
2013-04-17 20:41:00,64.9,62.0,30.04,SSE,160,0.0,0.0,91,0.00,,,0.00,weatherlink.com 1.10,2013-04-18 00:41:00,
2013-04-17 20:56:00,64.4,62.0,30.04,SSE,160,1.0,2.0,91,0.00,,,0.00,weatherlink.com 1.10,2013-04-18 00:56:00,
2013-04-17 21:11:00,64.0,62.0,30.05,SSE,160,0.0,2.0,92,0.00,,,0.00,weatherlink.com 1.10,2013-04-18 01:11:00,
2013-04-17 21:26:00,63.7,62.0,30.05,SSE,159,1.0,2.0,93,0.00,,,0.00,weatherlink.com 1.10,2013-04-18 01:26:00,
2013-04-17 21:41:00,63.5,61.0,30.05,NE,51,2.0,4.0,92,0.00,,,0.00,weatherlink.com 1.10,2013-04-18 01:41:00,
2013-04-17 21:56:00,63.1,61.0,30.05,NE,51,0.0,1.0,92,0.00,,,0.00,weatherlink.com 1.10,2013-04-18 01:56:00,
2013-04-17 22:11:00,62.6,60.0,30.05,NE,51,2.0,2.0,92,0.00,,,0.00,weatherlink.com 1.10,2013-04-18 02:11:00,
2013-04-17 22:28:00,62.5,60.0,30.04,NE,51,2.0,2.0,92,0.00,,,0.00,weatherlink.com 1.10,2013-04-18 02:28:00,
2013-04-17 22:41:00,62.1,60.0,30.04,NE,51,0.0,2.0,93,0.00,,,0.00,weatherlink.com 1.10,2013-04-18 02:41:00,
2013-04-17 22:56:00,61.8,60.0,30.03,NE,51,2.0,2.0,93,0.00,,,0.00,weatherlink.com 1.10,2013-04-18 02:56:00,
2013-04-17 23:11:00,61.8,60.0,30.02,NE,46,3.0,4.0,93,0.00,,,0.00,weatherlink.com 1.10,2013-04-18 03:11:00,
2013-04-17 23:26:00,62.1,60.0,30.02,NE,39,2.0,3.0,92,0.00,,,0.00,weatherlink.com 1.10,2013-04-18 03:26:00,
2013-04-17 23:41:00,62.2,60.0,30.02,NE,39,1.0,4.0,91,0.00,,,0.00,weatherlink.com 1.10,2013-04-18 03:41:00,
2013-04-17 23:56:00,62.3,60.0,30.02,NE,39,1.0,3.0,91,0.00,,,0.00,weatherlink.com 1.10,2013-04-18 03:56:00,